Weather History for KVCB - September, 2013

Change the Weather History Date:

Wednesday, September 18, 2013

  Actual Average Record
Temperature  
Mean Temperature 73 °F -  
Max Temperature 89 °F 86 °F 104 °F (2000)
Min Temperature 57 °F 55 °F 43 °F (1954)
Cooling Degree Days 8    
Growing Degree Days 23 (Base 50)    
Moisture  
Dew Point 40 °F    
Average Humidity 34    
Maximum Humidity 72    
Minimum Humidity 12    
Precipitation  
Precipitation 0.00 in - - ()
Sea Level Pressure  
Sea Level Pressure 29.85 in    
Wind  
Wind Speed 5 mph (NNW)    
Max Wind Speed 16 mph    
Max Gust Speed 28 mph    
Visibility 10 miles    
Events      
Averages and records for this station are not official NWS values.
T = Trace of Precipitation, MM = Missing Value Source: NWS Daily Summary

Daily Weather History Graph

Daily Weather History Graph

Search for Another Location

Airport or City:

Trip Planner

Search our weather history database for the weather conditions in past years. The results will help you decide how hot, cold, wet, or windy it might be!

Date:

Astronomy

Sep. 18, 2013 Rise Set
Actual Time 6:52 AM PDT 7:10 PM PDT
Civil Twilight 6:25 AM PDT 7:37 PM PDT
Nautical Twilight 5:54 AM PDT 8:08 PM PDT
Astronomical Twilight 5:23 AM PDT 8:39 PM PDT
Moon 6:37 PM PDT (9/18) 6:00 AM PDT (9/18)
Length of Visible Light 13h 11m
Length of Day
12h 18m
Waxing Gibbous, 99% of the Moon is Illuminated
Sep 18
Waxing Gibbous
Sep 19
Full
Sep 26
Last Quarter
Oct 4
New
Oct 11
First Quarter

Hourly Weather History & Observations

Time (PDT) Temp. Dew Point Humidity Pressure Visibility Wind Dir Wind Speed Gust Speed Precip Events Conditions
12:53 AM 60.1 °F 50.0 °F 69% 29.87 in 10.0 mi Calm Calm - N/A   Clear
1:53 AM 57.9 °F 48.9 °F 72% 29.87 in 10.0 mi Calm Calm - N/A   Clear
2:53 AM 66.9 °F 44.1 °F 44% 29.86 in 10.0 mi NNW 6.9 mph - N/A   Clear
3:53 AM 66.0 °F 44.1 °F 45% 29.86 in 10.0 mi North 4.6 mph - N/A   Clear
4:53 AM 66.9 °F 42.1 °F 40% 29.86 in 10.0 mi North 8.1 mph - N/A   Clear
5:53 AM 64.9 °F 44.1 °F 47% 29.87 in 10.0 mi NNW 6.9 mph - N/A   Clear
6:53 AM 64.0 °F 42.1 °F 45% 29.89 in 10.0 mi NNW 5.8 mph - N/A   Clear
7:53 AM 68.0 °F 39.0 °F 35% 29.90 in 10.0 mi North 12.7 mph 19.6 mph N/A   Clear
8:53 AM 71.1 °F 39.0 °F 31% 29.90 in 10.0 mi North 15.0 mph 26.5 mph N/A   Clear
9:53 AM 75.0 °F 39.0 °F 27% 29.91 in 10.0 mi North 16.1 mph 27.6 mph N/A   Clear
10:53 AM 78.1 °F 39.0 °F 25% 29.91 in 10.0 mi North 11.5 mph 19.6 mph N/A   Clear
11:53 AM 81.0 °F 39.0 °F 22% 29.88 in 10.0 mi NNW 12.7 mph 19.6 mph N/A   Clear
12:53 PM 84.9 °F 36.0 °F 17% 29.87 in 10.0 mi North 8.1 mph - N/A   Clear
1:53 PM 86.0 °F 35.1 °F 16% 29.84 in 10.0 mi Variable 4.6 mph - N/A   Clear
2:53 PM 88.0 °F 33.1 °F 14% 29.82 in 10.0 mi North 5.8 mph - N/A   Clear
3:53 PM 89.1 °F 30.9 °F 12% 29.80 in 10.0 mi Variable 4.6 mph - N/A   Clear
4:53 PM 87.1 °F 41.0 °F 20% 29.79 in 10.0 mi Variable 3.5 mph - N/A   Clear
5:53 PM 84.9 °F 37.9 °F 19% 29.79 in 10.0 mi Calm Calm - N/A   Clear
6:53 PM 79.0 °F 42.1 °F 27% 29.79 in 10.0 mi Variable 5.8 mph - N/A   Clear
7:53 PM 73.0 °F 42.1 °F 33% 29.81 in 10.0 mi WSW 3.5 mph - N/A   Clear
8:53 PM 64.0 °F 37.9 °F 38% 29.82 in 10.0 mi Calm Calm - N/A   Clear
9:53 PM 64.0 °F 37.9 °F 38% 29.83 in 10.0 mi Calm Calm - N/A   Clear
10:53 PM 60.1 °F 37.0 °F 42% 29.82 in 10.0 mi Calm Calm - N/A   Clear
11:53 PM 64.0 °F 37.0 °F 37% 29.81 in 10.0 mi WSW 4.6 mph - N/A   Clear